This demonstration page uses our WeatherBlox Daily Observations layout. Learn more.

Left ArrowRight Arrow

39.01783, -85.05884

Hourly Observations for August 12, 2021

Temp ( °F °C ) Dew Point ( °F °C ) Humidity (%) Winds ( mph kmh ) Pressure ( in mb ) Visibility ( mi km ) Precip ( " mm )
12:52 am 00:52 Mostly Clear 79 26.1 71 21.7 77 77 SSW 9 15 29.98 1015 10 16 0.00 0.00
1:52 am 01:52 Mostly Clear 79 26.1 71 21.7 77 77 SSW 7 11 29.99 1016 10 16 0.00 0.00
2:52 am 02:52 Clear 78 25.6 70 21.1 76 76 SW 7 11 29.98 1015 10 16 0.00 0.00
3:52 am 03:52 Clear 77 25 70 21.1 79 79 SSW 7 11 29.97 1015 10 16 0.00 0.00
4:52 am 04:52 Clear 77 25 70 21.1 79 79 SSW 6 9 29.97 1015 10 16 0.00 0.00
5:52 am 05:52 Clear 76 24.4 70 21.1 82 82 SSW 8 13 29.98 1015 10 16 0.00 0.00
6:52 am 06:52 Sunny 76 24.4 71 21.7 85 85 SSW 9 15 29.99 1016 10 16 0.00 0.00
7:52 am 07:52 Sunny 77 25 71 21.7 82 82 SSW 9 15 30.03 1017 10 16 0.00 0.00
8:52 am 08:52 Mostly Sunny 80 26.7 72 22.2 76 76 SW 10 17 30.05 1018 10 16 0.00 0.00
9:52 am 09:52 Mostly Sunny 83 28.3 72 22.2 70 70 W 9 15 30.07 1018 10 16 0.00 0.00
10:52 am 10:52 Mostly Sunny 85 29.4 73 22.8 68 68 WSW 10 17 30.06 1018 10 16 0.00 0.00
11:52 am 11:52 Partly Cloudy 87 30.6 73 22.8 63 63 SSW 9 15 30.05 1018 10 16 0.00 0.00
12:52 pm 12:52 Mostly Cloudy 89 31.7 74 23.3 61 61 SSW 7 11 30.04 1017 10 16 0.00 0.00
1:52 pm 13:52 Partly Cloudy 90 32.2 73 22.8 58 58 SSW 15 24 30.02 1017 10 16 0.00 0.00
2:52 pm 14:52 Mostly Sunny 92 33.3 73 22.8 54 54 SSW 14 22 30.01 1016 10 16 0.00 0.00
3:52 pm 15:52 Partly Cloudy 93 33.9 73 22.8 52 52 SSW 10 17 29.99 1016 10 16 0.00 0.00
4:52 pm 16:52 Partly Cloudy 92 33.3 72 22.2 52 52 WSW 12 19 29.99 1016 10 16 0.00 0.00
5:52 pm 17:52 Mostly Sunny 93 33.9 69 20.6 46 46 WSW 10 17 29.98 1015 10 16 0.00 0.00
6:52 pm 18:52 Partly Cloudy 91 32.8 69 20.6 49 49 WSW 12 19 29.97 1015 10 16 0.00 0.00
7:52 pm 19:52 Partly Cloudy 87 30.6 70 21.1 57 57 SW 7 11 29.97 1015 10 16 0.00 0.00
8:52 pm 20:52 Mostly Cloudy 84 28.9 71 21.7 65 65 SSW 7 11 29.99 1016 10 16 0.00 0.00
9:26 pm 21:26 Mostly Cloudy with Nearby Thunderstorms 84 28.9 71 21.7 65 65 SW 7 11 30.00 1016 10 16 0.00 0.00
9:36 pm 21:36 Mostly Cloudy with Nearby Thunderstorms 84 28.9 69 20.6 61 61 WNW 29 46 30.02 1017 8 13 0.00 0.00
9:52 pm 21:52 Cloudy 80 26.7 66 18.9 62 62 WNW 16 26 30.02 1017 10 16 0.00 0.00
10:15 pm 22:15 Cloudy with Nearby Thunderstorms 77 25 65 18.3 66 66 WSW 7 11 30.01 1016 10 16 0.00 0.00
10:34 pm 22:34 Cloudy 76 24.4 66 18.9 72 72 S 12 19 30.02 1017 10 16 0.00 0.00
10:52 pm 22:52 Cloudy 78 25.6 66 18.9 67 67 S 10 17 30.02 1017 10 16 0.00 0.00
11:52 pm 23:52 Cloudy 77 25 67 19.4 71 71 SW 8 13 30.04 1017 10 16 0.00 0.00

Powered by AerisWeather